• In Deutschland
  • Länderverzeichnis
  • Für 7 Tage
  • Wassertemperatur
  • Satellitenkarten
  • Wetterkarte
  • Widgets
  • user-avatar
    Anmelden

    Stündliche Wetter Seesen

    Heute, 19 Februar, Montag

    Zeit Temperatur Niederschläge Wind Luftdruck Luftfeuchtigkeit
    00:00 -2°C° 0 mm 2 m/S 749 mmHg 84%
    01:00 -1°C° 0 mm 1 m/S 749 mmHg 85%
    02:00 -1°C° 0 mm 1 m/S 748 mmHg 85%
    03:00 -1°C° 0 mm 1 m/S 748 mmHg 84%
    04:00 -3°C° 0 mm 2 m/S 748 mmHg 83%
    05:00 -1°C° 0 mm 1 m/S 748 mmHg 83%
    06:00 -1°C° 0 mm 1 m/S 747 mmHg 82%
    07:00 -1°C° 0 mm 1 m/S 747 mmHg 81%
    08:00 0°C° 0 mm 1 m/S 747 mmHg 78%
    09:00 +1°C° 0 mm 1 m/S 747 mmHg 74%
    10:00 +2°C° 0 mm 1 m/S 747 mmHg 70%
    11:00 +3°C° 0 mm 1 m/S 746 mmHg 66%
    12:00 +3°C° 0 mm 1 m/S 746 mmHg 63%
    13:00 +4°C° 0 mm 1 m/S 746 mmHg 59%
    14:00 +4°C° 0 mm 1 m/S 746 mmHg 60%
    15:00 +4°C° 0 mm 1 m/S 745 mmHg 61%
    16:00 +3°C° 0 mm 0 m/S 745 mmHg 62%
    17:00 +2°C° 0 mm 0 m/S 745 mmHg 67%
    18:00 +1°C° 0 mm 0 m/S 745 mmHg 71%
    19:00 0°C° 0 mm 0 m/S 745 mmHg 75%
    20:00 0°C° 0 mm 0 m/S 745 mmHg 76%
    21:00 0°C° 0 mm 1 m/S 744 mmHg 77%
    22:00 0°C° 0 mm 1 m/S 744 mmHg 78%
    23:00 0°C° 0 mm 1 m/S 744 mmHg 79%

    Morgen, 20 Februar, Dienstag

    Zeit Temperatur Niederschläge Wind Luftdruck Luftfeuchtigkeit
    00:00 0°C° 0 mm 1 m/S 744 mmHg 80%
    01:00 -1°C° 0 mm 1 m/S 744 mmHg 81%
    02:00 -1°C° 0 mm 1 m/S 744 mmHg 82%
    03:00 -1°C° 0 mm 1 m/S 744 mmHg 83%
    04:00 -1°C° 0 mm 1 m/S 744 mmHg 83%
    05:00 -1°C° 0 mm 1 m/S 744 mmHg 84%
    06:00 -1°C° 0 mm 1 m/S 744 mmHg 84%
    07:00 -2°C° 0 mm 1 m/S 744 mmHg 84%
    08:00 -3°C° 0 mm 2 m/S 744 mmHg 78%
    09:00 -2°C° 0 mm 2 m/S 744 mmHg 73%
    10:00 -1°C° 0 mm 2 m/S 744 mmHg 67%
    11:00 0°C° 0 mm 3 m/S 745 mmHg 63%
    12:00 +1°C° 0 mm 3 m/S 745 mmHg 60%
    13:00 +2°C° 0 mm 3 m/S 745 mmHg 56%
    14:00 +2°C° 0 mm 3 m/S 745 mmHg 57%
    15:00 +2°C° 0 mm 3 m/S 745 mmHg 58%
    16:00 +2°C° 0 mm 3 m/S 745 mmHg 59%
    17:00 +1°C° 0 mm 3 m/S 745 mmHg 66%
    18:00 -1°C° 0 mm 3 m/S 746 mmHg 73%
    19:00 -2°C° 0 mm 3 m/S 746 mmHg 79%
    20:00 -3°C° 0 mm 2 m/S 746 mmHg 81%
    21:00 -3°C° 0 mm 2 m/S 747 mmHg 83%
    22:00 -3°C° 0 mm 2 m/S 747 mmHg 85%
    23:00 -3°C° 0 mm 2 m/S 748 mmHg 85%

    übermorgen, 21 Februar, Mittwoch

    Zeit Temperatur Niederschläge Wind Luftdruck Luftfeuchtigkeit
    00:00 -4°C° 0 mm 2 m/S 748 mmHg 86%
    01:00 -4°C° 0 mm 2 m/S 748 mmHg 86%
    02:00 -4°C° 0 mm 2 m/S 748 mmHg 86%
    03:00 -4°C° 0 mm 2 m/S 749 mmHg 86%
    04:00 -2°C° 0 mm 1 m/S 749 mmHg 86%
    05:00 -2°C° 0 mm 1 m/S 749 mmHg 86%
    06:00 -2°C° 0 mm 1 m/S 749 mmHg 85%
    07:00 -2°C° 0 mm 1 m/S 749 mmHg 85%
    08:00 -3°C° 0 mm 2 m/S 749 mmHg 79%
    09:00 -3°C° 0 mm 2 m/S 749 mmHg 72%
    10:00 -2°C° 0 mm 2 m/S 750 mmHg 66%
    11:00 -1°C° 0 mm 2 m/S 749 mmHg 61%
    12:00 +2°C° 0 mm 2 m/S 749 mmHg 56%
    13:00 +2°C° 0 mm 3 m/S 749 mmHg 50%
    14:00 +2°C° 0 mm 3 m/S 749 mmHg 52%
    15:00 +1°C° 0 mm 3 m/S 748 mmHg 54%
    16:00 +1°C° 0 mm 3 m/S 748 mmHg 55%
    17:00 0°C° 0 mm 3 m/S 748 mmHg 61%
    18:00 -1°C° 0 mm 3 m/S 748 mmHg 67%
    19:00 -2°C° 0 mm 2 m/S 748 mmHg 73%
    20:00 -2°C° 0 mm 2 m/S 748 mmHg 75%
    21:00 -3°C° 0 mm 2 m/S 749 mmHg 78%
    22:00 -3°C° 0 mm 2 m/S 749 mmHg 80%
    23:00 -3°C° 0 mm 2 m/S 749 mmHg 81%

    22 Februar, Donnerstag

    Zeit Temperatur Niederschläge Wind Luftdruck Luftfeuchtigkeit
    00:00 -4°C° 0 mm 2 m/S 749 mmHg 83%
    01:00 -4°C° 0 mm 2 m/S 749 mmHg 85%
    02:00 -4°C° 0 mm 2 m/S 749 mmHg 85%
    03:00 -5°C° 0 mm 3 m/S 749 mmHg 85%
    04:00 -5°C° 0 mm 3 m/S 749 mmHg 85%
    05:00 -5°C° 0 mm 3 m/S 749 mmHg 83%
    06:00 -6°C° 0 mm 3 m/S 749 mmHg 81%
    07:00 -6°C° 0 mm 3 m/S 749 mmHg 79%
    08:00 -5°C° 0 mm 4 m/S 749 mmHg 71%
    09:00 -4°C° 0 mm 4 m/S 749 mmHg 63%
    10:00 -4°C° 0 mm 5 m/S 749 mmHg 55%
    11:00 -3°C° 0 mm 6 m/S 749 mmHg 53%
    12:00 -2°C° 0 mm 6 m/S 749 mmHg 52%
    13:00 -1°C° 0 mm 6 m/S 749 mmHg 50%
    14:00 -2°C° 0 mm 6 m/S 748 mmHg 52%
    15:00 -2°C° 0 mm 6 m/S 748 mmHg 54%
    16:00 -2°C° 0 mm 6 m/S 748 mmHg 55%
    17:00 -2°C° 0 mm 5 m/S 748 mmHg 61%
    18:00 -4°C° 0 mm 5 m/S 748 mmHg 68%
    19:00 -3°C° 0 mm 4 m/S 748 mmHg 74%
    20:00 -4°C° 0 mm 4 m/S 748 mmHg 75%
    21:00 -4°C° 0 mm 4 m/S 749 mmHg 76%
    22:00 -4°C° 0 mm 4 m/S 749 mmHg 77%
    23:00 -5°C° 0 mm 4 m/S 749 mmHg 76%

    23 Februar, Freitag

    Zeit Temperatur Niederschläge Wind Luftdruck Luftfeuchtigkeit
    00:00 -5°C° 0 mm 4 m/S 749 mmHg 76%
    01:00 -5°C° 0 mm 4 m/S 749 mmHg 76%
    02:00 -7°C° 0 mm 4 m/S 748 mmHg 73%
    03:00 -7°C° 0 mm 4 m/S 748 mmHg 71%
    04:00 -7°C° 0 mm 5 m/S 748 mmHg 69%
    05:00 -7°C° 0 mm 5 m/S 748 mmHg 69%
    06:00 -7°C° 0 mm 5 m/S 749 mmHg 69%
    07:00 -8°C° 0 mm 5 m/S 749 mmHg 69%
    08:00 -7°C° 0 mm 5 m/S 749 mmHg 65%
    09:00 -6°C° 0 mm 6 m/S 749 mmHg 60%
    10:00 -6°C° 0 mm 6 m/S 750 mmHg 56%
    11:00 -5°C° 0 mm 6 m/S 750 mmHg 53%
    12:00 -4°C° 0 mm 6 m/S 750 mmHg 50%
    13:00 -3°C° 0 mm 6 m/S 750 mmHg 47%
    14:00 -3°C° 0 mm 6 m/S 750 mmHg 48%
    15:00 -3°C° 0 mm 6 m/S 750 mmHg 48%
    16:00 -3°C° 0 mm 6 m/S 750 mmHg 48%
    17:00 -4°C° 0 mm 6 m/S 750 mmHg 50%
    18:00 -5°C° 0 mm 5 m/S 750 mmHg 53%
    19:00 -6°C° 0 mm 5 m/S 751 mmHg 55%
    20:00 -6°C° 0 mm 5 m/S 751 mmHg 55%
    21:00 -7°C° 0 mm 5 m/S 751 mmHg 56%
    22:00 -7°C° 0 mm 5 m/S 752 mmHg 56%
    23:00 -7°C° 0 mm 5 m/S 752 mmHg 55%

    24 Februar, Samstag

    Zeit Temperatur Niederschläge Wind Luftdruck Luftfeuchtigkeit
    00:00 -7°C° 0 mm 5 m/S 752 mmHg 54%
    01:00 -8°C° 0 mm 5 m/S 752 mmHg 53%
    02:00 -8°C° 0 mm 5 m/S 752 mmHg 53%
    03:00 -8°C° 0 mm 4 m/S 753 mmHg 54%
    04:00 -8°C° 0 mm 4 m/S 753 mmHg 55%
    05:00 -8°C° 0 mm 4 m/S 753 mmHg 58%
    06:00 -7°C° 0 mm 3 m/S 753 mmHg 61%
    07:00 -7°C° 0 mm 3 m/S 754 mmHg 64%
    08:00 -8°C° 0 mm 4 m/S 754 mmHg 59%
    09:00 -7°C° 0 mm 4 m/S 754 mmHg 55%
    10:00 -5°C° 0 mm 4 m/S 755 mmHg 50%
    11:00 -4°C° 0 mm 4 m/S 755 mmHg 47%
    12:00 -3°C° 0 mm 4 m/S 755 mmHg 44%
    13:00 -3°C° 0 mm 4 m/S 755 mmHg 41%
    14:00 -3°C° 0 mm 4 m/S 754 mmHg 43%
    15:00 -3°C° 0 mm 4 m/S 754 mmHg 44%
    16:00 -3°C° 0 mm 4 m/S 754 mmHg 45%
    17:00 -4°C° 0 mm 4 m/S 754 mmHg 50%
    18:00 -4°C° 0 mm 3 m/S 754 mmHg 55%
    19:00 -5°C° 0 mm 3 m/S 754 mmHg 60%
    20:00 -5°C° 0 mm 3 m/S 754 mmHg 62%
    21:00 -7°C° 0 mm 4 m/S 754 mmHg 64%
    22:00 -7°C° 0 mm 4 m/S 754 mmHg 66%
    23:00 -7°C° 0 mm 5 m/S 754 mmHg 65%
    Mehr zeigen